Location: 02324
(41.9834°N, 70.9022°W)
Time: 12:22:22
(UTC-05:00)

Resurs 01 Rocket - Pass Details

Date: 17 March 2017
Orbit: 636 x 643 km, 98.1° (Epoch: 20 November)

Event Time Altitude Azimuth Distance (km) Brightness Sun altitude
Rises 19:50:02 0° 160° (SSE) 2,920 4.7 -11.4°
Reaches altitude 10° 19:52:13 10° 158° (SSE) 2,016 3.9 -11.8°
Maximum altitude 19:56:36 72° 75° (ENE) 672 1.5 -12.6°
Drops below altitude 10° 20:01:00 10° 351° (N) 2,034 4.5 -13.4°
Sets 20:03:13 0° 350° (N) 2,949 5.3 -13.8°
